Time,TemperatureF,DewpointF,PressureIn,WindDirection,WindDirectionDegrees,WindSpeedMPH,WindSpeedGustMPH,Humidity,HourlyPrecipIn,Conditions,Clouds,dailyrainin,SoftwareType,DateUTC
2013-09-08 00:12:00,61.0,60.0,29.83,West,271,0.0,0.0,95,0.00,,,0.00,weatherlink.com 1.10,2013-09-08 04:12:00,
2013-09-08 00:27:00,60.9,60.0,29.83,West,271,0.0,0.0,95,0.00,,,0.00,weatherlink.com 1.10,2013-09-08 04:27:00,
2013-09-08 00:42:00,60.9,60.0,29.83,West,271,0.0,0.0,95,0.00,,,0.00,weatherlink.com 1.10,2013-09-08 04:42:00,
2013-09-08 00:57:00,60.9,60.0,29.83,West,271,0.0,0.0,95,0.00,,,0.00,weatherlink.com 1.10,2013-09-08 04:57:00,
2013-09-08 01:12:00,60.9,60.0,29.82,West,271,0.0,0.0,95,0.00,,,0.00,weatherlink.com 1.10,2013-09-08 05:12:00,
2013-09-08 01:27:00,60.8,59.0,29.82,West,271,0.0,0.0,95,0.00,,,0.00,weatherlink.com 1.10,2013-09-08 05:27:00,
2013-09-08 01:42:00,60.7,59.0,29.82,West,271,0.0,0.0,95,0.00,,,0.00,weatherlink.com 1.10,2013-09-08 05:42:00,
2013-09-08 01:57:00,60.7,59.0,29.81,West,271,0.0,0.0,95,0.00,,,0.00,weatherlink.com 1.10,2013-09-08 05:57:00,
2013-09-08 02:12:00,60.8,59.0,29.80,West,271,0.0,0.0,95,0.00,,,0.00,weatherlink.com 1.10,2013-09-08 06:12:00,
2013-09-08 02:27:00,60.8,59.0,29.81,West,271,0.0,0.0,95,0.00,,,0.00,weatherlink.com 1.10,2013-09-08 06:27:00,
2013-09-08 02:42:00,60.8,59.0,29.80,West,271,0.0,0.0,95,0.00,,,0.00,weatherlink.com 1.10,2013-09-08 06:42:00,
2013-09-08 02:57:00,60.7,59.0,29.80,West,271,0.0,0.0,95,0.00,,,0.00,weatherlink.com 1.10,2013-09-08 06:57:00,
2013-09-08 03:12:00,60.7,59.0,29.79,West,271,0.0,0.0,95,0.00,,,0.00,weatherlink.com 1.10,2013-09-08 07:12:00,
2013-09-08 03:27:00,60.8,59.0,29.79,West,271,0.0,0.0,95,0.00,,,0.00,weatherlink.com 1.10,2013-09-08 07:27:00,
2013-09-08 03:42:00,60.8,59.0,29.79,West,271,0.0,0.0,95,0.00,,,0.00,weatherlink.com 1.10,2013-09-08 07:42:00,
2013-09-08 03:57:00,60.9,60.0,29.78,West,271,0.0,0.0,95,0.00,,,0.00,weatherlink.com 1.10,2013-09-08 07:57:00,
2013-09-08 04:12:00,61.0,60.0,29.78,West,271,0.0,0.0,96,0.00,,,0.00,weatherlink.com 1.10,2013-09-08 08:12:00,
2013-09-08 04:27:00,60.9,60.0,29.78,West,271,0.0,0.0,95,0.00,,,0.00,weatherlink.com 1.10,2013-09-08 08:27:00,
2013-09-08 04:42:00,60.9,60.0,29.77,West,271,0.0,0.0,95,0.00,,,0.00,weatherlink.com 1.10,2013-09-08 08:42:00,
2013-09-08 04:57:00,61.0,60.0,29.77,West,271,0.0,0.0,95,0.00,,,0.00,weatherlink.com 1.10,2013-09-08 08:57:00,
2013-09-08 05:12:00,60.9,60.0,29.76,West,271,0.0,0.0,95,0.00,,,0.00,weatherlink.com 1.10,2013-09-08 09:12:00,
2013-09-08 05:27:00,60.9,60.0,29.76,West,271,0.0,0.0,95,0.00,,,0.00,weatherlink.com 1.10,2013-09-08 09:27:00,
2013-09-08 05:42:00,60.9,60.0,29.76,West,271,0.0,0.0,96,0.00,,,0.00,weatherlink.com 1.10,2013-09-08 09:42:00,
2013-09-08 05:57:00,60.9,60.0,29.77,West,271,0.0,0.0,96,0.00,,,0.00,weatherlink.com 1.10,2013-09-08 09:57:00,
2013-09-08 06:12:00,60.9,60.0,29.77,West,271,0.0,0.0,96,0.00,,,0.00,weatherlink.com 1.10,2013-09-08 10:12:00,
2013-09-08 06:27:00,61.0,60.0,29.78,West,271,0.0,0.0,96,0.00,,,0.00,weatherlink.com 1.10,2013-09-08 10:27:00,
2013-09-08 06:42:00,61.1,60.0,29.78,West,271,0.0,0.0,96,0.00,,,0.00,weatherlink.com 1.10,2013-09-08 10:42:00,
2013-09-08 06:57:00,61.1,60.0,29.78,West,271,0.0,0.0,96,0.00,,,0.00,weatherlink.com 1.10,2013-09-08 10:57:00,
2013-09-08 07:12:00,61.2,60.0,29.78,West,271,0.0,0.0,96,0.00,,,0.00,weatherlink.com 1.10,2013-09-08 11:12:00,
2013-09-08 07:27:00,61.4,60.0,29.78,West,271,0.0,0.0,96,0.00,,,0.00,weatherlink.com 1.10,2013-09-08 11:27:00,
2013-09-08 07:42:00,61.8,61.0,29.78,West,271,0.0,0.0,96,0.00,,,0.00,weatherlink.com 1.10,2013-09-08 11:42:00,
2013-09-08 07:57:00,62.2,61.0,29.78,East,86,2.0,3.0,96,0.00,,,0.00,weatherlink.com 1.10,2013-09-08 11:57:00,
2013-09-08 08:12:00,62.7,61.0,29.77,East,86,0.0,0.0,95,0.00,,,0.00,weatherlink.com 1.10,2013-09-08 12:12:00,
2013-09-08 08:27:00,63.1,61.0,29.78,East,86,0.0,0.0,93,0.00,,,0.00,weatherlink.com 1.10,2013-09-08 12:27:00,
2013-09-08 08:42:00,63.4,61.0,29.79,East,86,0.0,0.0,93,0.00,,,0.00,weatherlink.com 1.10,2013-09-08 12:42:00,
2013-09-08 08:57:00,64.3,62.0,29.79,East,83,1.0,3.0,91,0.00,,,0.00,weatherlink.com 1.10,2013-09-08 12:57:00,
2013-09-08 09:12:00,65.1,62.0,29.80,East,81,2.0,3.0,90,0.00,,,0.00,weatherlink.com 1.10,2013-09-08 13:12:00,
2013-09-08 09:27:00,65.6,62.0,29.80,West,272,4.0,5.0,88,0.00,,,0.00,weatherlink.com 1.10,2013-09-08 13:27:00,
2013-09-08 09:42:00,66.3,62.0,29.80,NNW,340,5.0,11.0,86,0.00,,,0.00,weatherlink.com 1.10,2013-09-08 13:42:00,
2013-09-08 09:57:00,66.1,62.0,29.80,WNW,298,2.0,9.0,86,0.00,,,0.00,weatherlink.com 1.10,2013-09-08 13:57:00,
2013-09-08 10:12:00,66.3,62.0,29.80,NW,307,2.0,11.0,85,0.00,,,0.00,weatherlink.com 1.10,2013-09-08 14:12:00,
2013-09-08 10:27:00,67.4,62.0,29.80,NNW,337,1.0,10.0,84,0.00,,,0.00,weatherlink.com 1.10,2013-09-08 14:27:00,
2013-09-08 10:42:00,68.4,61.0,29.81,WSW,238,6.0,11.0,78,0.00,,,0.00,weatherlink.com 1.10,2013-09-08 14:42:00,
2013-09-08 10:57:00,69.1,60.0,29.81,WSW,251,4.0,14.0,72,0.00,,,0.00,weatherlink.com 1.10,2013-09-08 14:57:00,
2013-09-08 11:12:00,69.4,57.0,29.82,WSW,253,6.0,14.0,64,0.00,,,0.00,weatherlink.com 1.10,2013-09-08 15:12:00,
2013-09-08 11:27:00,68.2,55.0,29.82,South,184,3.0,13.0,64,0.00,,,0.00,weatherlink.com 1.10,2013-09-08 15:27:00,
2013-09-08 11:42:00,66.8,58.0,29.82,North,349,2.0,8.0,74,0.00,,,0.00,weatherlink.com 1.10,2013-09-08 15:42:00,
2013-09-08 11:57:00,67.1,58.0,29.82,ENE,75,7.0,10.0,72,0.00,,,0.00,weatherlink.com 1.10,2013-09-08 15:57:00,
2013-09-08 12:12:00,67.7,58.0,29.83,NNW,339,0.0,6.0,70,0.00,,,0.00,weatherlink.com 1.10,2013-09-08 16:12:00,
2013-09-08 12:27:00,68.5,57.0,29.83,NE,40,0.0,10.0,66,0.00,,,0.00,weatherlink.com 1.10,2013-09-08 16:27:00,
2013-09-08 12:42:00,67.8,53.0,29.83,NNW,344,3.0,14.0,59,0.00,,,0.00,weatherlink.com 1.10,2013-09-08 16:42:00,
2013-09-08 12:57:00,68.3,50.0,29.83,North,5,3.0,15.0,53,0.00,,,0.00,weatherlink.com 1.10,2013-09-08 16:57:00,
2013-09-08 13:13:00,68.9,49.0,29.84,WNW,286,6.0,16.0,49,0.00,,,0.00,weatherlink.com 1.10,2013-09-08 17:13:00,
2013-09-08 13:28:00,68.7,48.0,29.84,North,5,5.0,20.0,47,0.00,,,0.00,weatherlink.com 1.10,2013-09-08 17:28:00,
2013-09-08 13:43:00,69.0,48.0,29.84,North,355,10.0,16.0,47,0.00,,,0.00,weatherlink.com 1.10,2013-09-08 17:43:00,
2013-09-08 13:58:00,69.4,48.0,29.85,WSW,244,6.0,9.0,46,0.00,,,0.00,weatherlink.com 1.10,2013-09-08 17:58:00,
2013-09-08 14:13:00,69.7,48.0,29.85,North,355,6.0,11.0,46,0.00,,,0.00,weatherlink.com 1.10,2013-09-08 18:13:00,
2013-09-08 14:28:00,69.8,49.0,29.85,NNW,329,0.0,16.0,47,0.00,,,0.00,weatherlink.com 1.10,2013-09-08 18:28:00,
2013-09-08 14:43:00,69.2,47.0,29.86,WSW,258,8.0,11.0,46,0.00,,,0.00,weatherlink.com 1.10,2013-09-08 18:43:00,
2013-09-08 14:58:00,69.8,47.0,29.86,North,355,2.0,9.0,45,0.00,,,0.00,weatherlink.com 1.10,2013-09-08 18:58:00,
2013-09-08 15:13:00,69.7,47.0,29.86,ENE,63,3.0,13.0,44,0.00,,,0.00,weatherlink.com 1.10,2013-09-08 19:13:00,
2013-09-08 15:28:00,69.9,46.0,29.86,NNW,348,0.0,8.0,43,0.00,,,0.00,weatherlink.com 1.10,2013-09-08 19:28:00,
2013-09-08 15:43:00,69.9,46.0,29.87,North,360,0.0,10.0,42,0.00,,,0.00,weatherlink.com 1.10,2013-09-08 19:43:00,
2013-09-08 15:58:00,69.9,45.0,29.87,NE,42,4.0,8.0,41,0.00,,,0.00,weatherlink.com 1.10,2013-09-08 19:58:00,
2013-09-08 16:13:00,69.9,46.0,29.87,North,349,5.0,14.0,43,0.00,,,0.00,weatherlink.com 1.10,2013-09-08 20:13:00,
2013-09-08 16:28:00,69.9,45.0,29.87,North,351,0.0,12.0,41,0.00,,,0.00,weatherlink.com 1.10,2013-09-08 20:28:00,
2013-09-08 16:43:00,69.5,43.0,29.88,North,5,2.0,10.0,39,0.00,,,0.00,weatherlink.com 1.10,2013-09-08 20:43:00,
2013-09-08 16:58:00,69.2,44.0,29.88,North,355,8.0,12.0,41,0.00,,,0.00,weatherlink.com 1.10,2013-09-08 20:58:00,
2013-09-08 17:13:00,68.8,43.0,29.89,North,5,4.0,8.0,39,0.00,,,0.00,weatherlink.com 1.10,2013-09-08 21:13:00,
2013-09-08 17:28:00,68.5,44.0,29.89,NNW,345,7.0,10.0,41,0.00,,,0.00,weatherlink.com 1.10,2013-09-08 21:28:00,
2013-09-08 17:43:00,67.7,44.0,29.90,NNW,328,0.0,11.0,42,0.00,,,0.00,weatherlink.com 1.10,2013-09-08 21:43:00,
2013-09-08 17:58:00,67.5,44.0,29.90,NW,317,0.0,7.0,43,0.00,,,0.00,weatherlink.com 1.10,2013-09-08 21:58:00,
2013-09-08 18:13:00,67.1,44.0,29.91,NNE,32,0.0,8.0,44,0.00,,,0.00,weatherlink.com 1.10,2013-09-08 22:13:00,
2013-09-08 18:28:00,66.5,44.0,29.91,NW,326,2.0,11.0,44,0.00,,,0.00,weatherlink.com 1.10,2013-09-08 22:28:00,
2013-09-08 18:43:00,65.3,44.0,29.92,NNW,338,0.0,7.0,46,0.00,,,0.00,weatherlink.com 1.10,2013-09-08 22:43:00,
2013-09-08 18:58:00,64.5,43.0,29.93,NW,322,0.0,6.0,46,0.00,,,0.00,weatherlink.com 1.10,2013-09-08 22:58:00,
2013-09-08 19:13:00,63.7,43.0,29.94,NNW,336,0.0,4.0,48,0.00,,,0.00,weatherlink.com 1.10,2013-09-08 23:13:00,
2013-09-08 19:28:00,62.8,44.0,29.95,North,355,0.0,4.0,51,0.00,,,0.00,weatherlink.com 1.10,2013-09-08 23:28:00,
2013-09-08 19:43:00,62.3,44.0,29.96,NNW,341,0.0,3.0,51,0.00,,,0.00,weatherlink.com 1.10,2013-09-08 23:43:00,
2013-09-08 19:58:00,61.6,43.0,29.97,NNW,327,0.0,1.0,51,0.00,,,0.00,weatherlink.com 1.10,2013-09-08 23:58:00,
2013-09-08 20:13:00,61.1,42.0,29.98,NNW,338,0.0,4.0,50,0.00,,,0.00,weatherlink.com 1.10,2013-09-09 00:13:00,
2013-09-08 20:28:00,60.1,43.0,30.00,NNW,338,0.0,1.0,53,0.00,,,0.00,weatherlink.com 1.10,2013-09-09 00:28:00,
2013-09-08 20:43:00,58.6,44.0,30.01,NW,313,0.0,0.0,59,0.00,,,0.00,weatherlink.com 1.10,2013-09-09 00:43:00,
2013-09-08 20:58:00,56.4,45.0,30.02,NW,313,0.0,0.0,66,0.00,,,0.00,weatherlink.com 1.10,2013-09-09 00:58:00,
2013-09-08 21:13:00,55.7,45.0,30.03,NW,313,0.0,0.0,68,0.00,,,0.00,weatherlink.com 1.10,2013-09-09 01:13:00,
2013-09-08 21:28:00,54.6,46.0,30.03,NW,313,0.0,0.0,72,0.00,,,0.00,weatherlink.com 1.10,2013-09-09 01:28:00,
2013-09-08 21:43:00,54.2,45.0,30.04,NW,313,0.0,0.0,72,0.00,,,0.00,weatherlink.com 1.10,2013-09-09 01:43:00,
2013-09-08 21:58:00,52.9,46.0,30.05,NW,313,0.0,0.0,76,0.00,,,0.00,weatherlink.com 1.10,2013-09-09 01:58:00,
2013-09-08 22:13:00,51.3,46.0,30.05,NW,313,0.0,0.0,81,0.00,,,0.00,weatherlink.com 1.10,2013-09-09 02:13:00,
2013-09-08 22:28:00,51.0,46.0,30.06,NW,313,0.0,0.0,83,0.00,,,0.00,weatherlink.com 1.10,2013-09-09 02:28:00,
2013-09-08 22:43:00,50.1,46.0,30.07,NW,313,0.0,0.0,85,0.00,,,0.00,weatherlink.com 1.10,2013-09-09 02:43:00,
2013-09-08 22:58:00,49.4,45.0,30.08,NW,313,0.0,0.0,86,0.00,,,0.00,weatherlink.com 1.10,2013-09-09 02:58:00,
2013-09-08 23:13:00,49.3,45.0,30.08,NW,313,0.0,0.0,86,0.00,,,0.00,weatherlink.com 1.10,2013-09-09 03:13:00,
2013-09-08 23:29:00,49.2,45.0,30.09,NW,313,0.0,0.0,86,0.00,,,0.00,weatherlink.com 1.10,2013-09-09 03:29:00,
2013-09-08 23:44:00,48.8,45.0,30.09,NW,313,0.0,0.0,87,0.00,,,0.00,weatherlink.com 1.10,2013-09-09 03:44:00,
2013-09-08 23:59:00,48.3,45.0,30.09,NW,313,0.0,0.0,87,0.00,,,0.00,weatherlink.com 1.10,2013-09-09 03:59:00,